N1PLV Weather Reports


time (UTC)temp
F
wind
direction
speed
knots
gust
knots
rain 1hr
in
rain 24hr
in
rain mn
in
humidity
%
barometer
mb
20240305113001 56 224 7.0 12.2 0.00 2.00 0.00 97 1019.2
20240305111500 56 219 7.0 12.2 0.00 2.00 0.00 98 1019.0
20240305110000 56 241 7.8 13.9 0.00 2.00 0.00 98 1018.7
20240305104500 56 360 7.8 13.0 0.00 2.02 0.00 97 1018.5
20240305103000 56 222 7.8 12.2 0.00 2.02 0.00 97 1018.4
20240305101500 56 360 8.7 13.9 0.00 2.02 0.00 97 1018.2
20240305100000 56 214 7.0 10.4 0.00 2.02 0.00 97 1018.0
20240305094500 56 207 7.0 13.9 0.00 2.09 0.00 97 1017.8
20240305093000 56 217 9.6 15.6 0.00 2.09 0.00 97 1017.6
20240305091500 56 360 7.8 13.0 0.00 2.09 0.00 97 1017.4
20240305090001 56 235 7.8 13.9 0.00 2.09 0.00 97 1017.4
20240305084500 56 205 7.8 15.6 0.00 2.15 0.00 97 1017.2
20240305083000 57 360 7.8 15.6 0.00 2.15 0.00 97 1017.0
20240305081500 57 176 7.0 15.6 0.00 2.15 0.00 98 1016.9
20240305074500 57 360 7.0 17.4 0.00 2.15 0.00 97 1016.7
20240305073000 57 360 7.8 13.9 0.00 2.15 0.00 97 1016.7
20240305071500 57 185 7.0 12.2 0.00 2.15 0.00 97 1016.7
20240305064459 57 202 7.8 16.5 0.00 2.15 0.00 98 1016.4
20240305061459 57 225 8.7 16.5 0.00 2.15 0.00 97 1016.5
20240305060000 57 360 8.7 18.2 0.00 2.15 0.00 97 1016.6
20240305054500 57 171 8.7 17.4 0.00 2.15 0.00 97 1016.6
20240305053000 57 153 8.7 15.6 0.00 2.15 0.00 97 1016.5
20240305051500 57 147 7.0 14.8 0.00 2.15 0.00 97 1016.4
20240305050000 58 183 8.7 17.4 0.00 2.15 2.15 97 1016.4
20240305044459 58 166 7.8 16.5 0.00 2.15 2.15 97 1016.0
20240305040000 59 198 7.8 15.6 0.00 2.15 2.15 98 1015.9
20240305034458 59 360 7.0 13.9 0.00 2.15 2.15 98 1015.9
20240305031458 60 158 8.7 18.2 0.01 2.15 2.15 98 1015.7
20240305025958 61 360 8.7 16.5 0.01 2.15 2.15 98 1015.5
20240305024459 58 128 8.7 19.1 0.01 2.15 2.15 98 1015.3
20240305023000 57 130 8.7 16.5 0.01 2.15 2.15 97 1015.2
20240305015959 57 113 10.4 15.6 0.06 2.14 2.14 97 1015.1
20240305014458 57 107 10.4 13.9 0.15 2.14 2.14 97 1015.2
20240305011458 57 96 12.2 17.4 0.29 2.13 2.13 97 1015.4
20240305005959 57 112 7.8 13.0 0.30 2.08 2.08 97 1015.4
20240305004458 56 89 9.6 16.5 0.24 1.99 1.99 97 1015.6
20240305002959 56 96 7.8 13.9 0.14 1.89 1.89 97 1016.1
20240305001458 56 107 7.0 14.8 0.09 1.84 1.84 97 1016.2
20240304235959 56 93 9.6 14.8 0.04 1.78 1.78 97 1016.6
20240304234458 56 93 8.7 15.6 0.02 1.75 1.75 97 1016.7
20240304232958 56 98 5.2 13.9 0.04 1.75 1.75 97 1016.8
20240304231458 56 360 7.0 10.4 0.12 1.75 1.75 97 1016.9
20240304225958 57 106 8.7 13.0 0.21 1.74 1.74 97 1016.9
20240304224459 57 79 10.4 15.6 0.25 1.73 1.73 97 1017.0
20240304215959 57 103 5.2 10.4 0.10 1.53 1.53 97 1017.2
20240304214458 56 97 6.1 11.3 0.05 1.48 1.48 97 1017.3
20240304212959 56 360 8.7 13.0 0.04 1.47 1.47 97 1017.3
20240304211458 56 61 6.1 11.3 0.03 1.45 1.45 97 1017.5
20240304205959 56 360 6.1 10.4 0.01 1.43 1.43 97 1017.6
20240304204459 56 26 4.3 9.6 0.02 1.43 1.43 96 1017.8
20240304202959 56 360 2.6 6.1 0.04 1.43 1.43 96 1017.8
20240304195959 58 85 8.7 13.9 0.09 1.42 1.42 97 1018.2
20240304194458 57 86 7.0 11.3 0.14 1.41 1.41 97 1018.4
20240304193002 57 78 7.0 13.9 0.21 1.39 1.39 97 1018.6
20240304191459 56 114 6.1 10.4 0.21 1.33 1.33 96 1018.6
20240304190000 57 113 5.2 9.6 0.36 1.33 1.33 97 1019.0
20240304184458 57 93 7.0 9.6 0.32 1.27 1.27 97 1019.3
20240304182959 57 90 5.2 14.8 0.25 1.18 1.18 97 1019.4
20240304181459 57 97 6.1 12.2 0.29 1.12 1.12 97 1019.8
20240304171459 55 360 7.0 13.9 0.23 0.83 0.83 97 1020.7
20240304165959 55 82 6.1 12.2 0.18 0.72 0.72 96 1020.8
20240304164458 55 54 6.1 10.4 0.22 0.68 0.68 96 1020.8
20240304162958 54 67 7.0 11.3 0.26 0.64 0.64 96 1021.1
20240304161458 55 75 7.0 12.2 0.25 0.60 0.60 96 1021.4
20240304154501 55 36 7.8 14.8 0.17 0.46 0.46 96 1022.0
20240304153001 54 49 7.8 17.4 0.10 0.38 0.38 96 1022.1
20240304151500 54 38 7.8 14.8 0.10 0.35 0.35 96 1021.9
20240304150001 54 52 7.8 13.9 0.08 0.31 0.31 96 1022.1
20240304144500 53 54 7.0 13.0 0.08 0.29 0.29 96 1022.3
20240304143000 53 57 7.0 11.3 0.07 0.28 0.28 96 1022.5
20240304141500 54 57 6.1 11.3 0.04 0.25 0.25 96 1022.5
20240304140001 54 33 7.0 12.2 0.01 0.22 0.22 96 1022.5
20240304134500 54 360 7.0 12.2 0.01 0.21 0.21 95 1022.4
20240304133000 54 69 6.1 9.6 0.01 0.21 0.21 96 1022.4
20240304131500 55 30 7.8 13.0 0.02 0.21 0.21 96 1022.3
20240304130001 55 42 7.0 11.3 0.03 0.21 0.21 96 1022.4
20240304124500 54 55 7.8 13.0 0.03 0.20 0.20 96 1022.4
20240304123001 53 63 5.2 9.6 0.03 0.20 0.20 95 1022.2
20240304121500 53 33 2.6 5.2 0.03 0.19 0.19 96 1022.0
20240304120012 53 350 2.6 5.2 0.03 0.18 0.18 95 1022.2
20240304114500 53 32 1.7 4.3 0.02 0.17 0.17 95 1022.3